STARLINK-4648, 53602

Orbit data source: Space-Track

STARLINK-4648, 53602 is a payload satellite owned by SpaceX/Seattle (US) in LEO that was launched on Sun, 28 Aug 2022 UTC via an FALCON 9 launch vehicle from the Air Force Eastern Test Range (AFETR). Payload-class satellites include a variety of spacecraft equipped with specific instruments for various scientific and technological missions. These include communications satellites like Starlink; space stations such as the ISS; scientific satellites like the Hubble; Earth observation satellites from companies like Planet Labs, Umbra, and HawkEye 360; GPS; miniature CubeSats for education and research; and military/defense satellites.

Loading next visibility...
Identifier
53602, 2022-104Q
Orbit
LEO
Country
Flag of USUS
Related business
Manufacturer
SpaceX/Seattle
Mission
Operational Commercial Communications
Bus & Motor
STARLINK, Unknown motor
Mass
300 kg wet, ~290 kg dry
Launch date (UTC)
2022-08-28 (3 years ago)
Launch vehicle
FALCON 9
Launch site
Air Force Eastern Test Range (AFETR)
Object type
Payload
Rocket body
Debris
Shape & HBR
Box + 1 Pan, 10.1 m
Radar Cross Section
13.562 m², Large (>1 m²)

Expand to show TLE details & history
Last TLE update: 10 hours ago

TLE from 10 hours ago
0 STARLINK-4648
1 53602U 22104Q   25343.12403500  .00009899  00000-0  63979-3 0  9999
2 53602  53.2180 285.6261 0001310  96.5061 263.6080 15.08805110182015
Epoch: 2025-12-09T02:58Z
TLE epoch observation values (Epoch: 2025-12-09T02:58:36.624Z)
Latitude
-0.00008°
Longitude
162.86022°
Altitude
540.849 km
Speed
7.593 km/s
True Right ascension
19h 02m 30s
True Declination
0° 00' 00"
Sunlit
Object was in daylight at epoch
Visualization orbit readout
Latitude
Unknown
Longitude
Unknown
Altitude
Unknown
Speed
Unknown
Apparent Right ascension
Unknown
Apparent Declination
Unknown
Sunlit
N/A
Visualization observer readout
Local Sidereal Time
10:53:13
Azimuth
Unknown
Elevation
Unknown
Doppler factor
Unknown
Orbital elements
Apogee altitude
541.001 km
Perigee altitude
539.189 km
Semi-major axis
6,918.232 km
Eccentricity
0.00013
Inclination
53.218°
RAAN
285.6261°
Arg. of periapsis
96.5061°
True anomaly
263.59308°
Mean anomaly
263.608°
Eccentric anomaly
263.60054°
Mean motion
3.77182 °/min
Orbital period
95.44 mins
BSTAR
0.00063979
Loading maneuver chart data...
Computing Atmospheric mass density...
Loading historical data...
Loading historical data...
Loading historical data...
Loading historical data...
Loading historical data...
Loading historical data...
Loading historical data...

Documentation

Showing up to 5 results
|